Cloud_Cover
38 100 100 21 91 60 54 68 42 61 100 63 70 14 88 84 90 100 100 5 10 50 63 100 100 69 48 100 100 41 0 0 0 0 4 39 79 4 60 3 1 0 2
5 100 82 6 90 100 93 8 62 12 100 100 99 100 99 100 100 94 100 90 100 94 85 99 100 100 5 11 99 72 3 0 0 0 0 5 2 0 0 0 4 2 0
77 100 83 72 95 98 15 40 5 5 98 100 35 100 58 100 100 89 100 100 100 95 95 94 29 100 5 5 66 100 69 0 0 0 0 0 0 0 0 0 0 0 0
66 92 85 100 99 100 17 64 32 9 100 100 14 55 79 100 98 54 100 100 100 100 100 100 49 5 47 38 5 76 99 4 0 0 0 0 0 0 0 0 0 0 0
82 93 50 94 82 90 96 59 46 1 17 99 5 59 80 79 53 17 34 100 100 100 100 100 100 8 5 5 8 7 93 90 3 1 0 0 0 0 0 0 0 0 0
85 85 100 48 5 5 100 88 10 2 2 40 16 9 5 84 30 38 71 99 89 100 100 97 75 94 5 5 37 93 11 93 99 2 0 0 0 0 0 0 0 0 0
99 100 22 8 5 10 19 41 5 2 4 80 74 34 15 84 32 100 83 72 100 100 95 61 100 100 56 2 5 84 96 73 100 57 5 0 0 0 0 0 0 0 0
95 100 100 100 100 5 5 5 5 20 0 0 70 6 5 55 100 87 41 20 98 94 36 5 53 100 51 27 5 6 62 100 83 98 98 36 3 0 0 4 1 4 2
91 30 11 5 1 4 1 5 8 5 0 0 6 27 10 5 9 95 38 98 61 4 5 7 100 100 100 100 58 5 21 43 55 95 36 5 10 5 3 2 3 5 1
8 5 5 1 0 0 0 0 5 11 5 0 2 5 5 5 98 59 17 83 7 46 4 91 100 100 100 100 99 88 5 45 100 13 5 5 5 5 5 5 5 5 5
15 16 5 5 0 0 0 0 0 5 5 0 1 0 0 26 21 68 6 5 0 2 3 74 100 100 98 69 74 96 7 5 11 5 5 5 5 5 5 5 5 5 5
12 23 11 5 5 0 0 0 0 4 3 0 0 0 0 14 5 10 4 56 4 3 0 100 82 89 78 100 70 74 5 50 5 29 5 5 5 5 5 4 5 23 59
4 2 65 15 5 4 0 0 0 0 0 0 0 0 0 6 20 7 0 5 56 43 0 23 53 33 50 95 45 32 5 5 15 5 5 5 7 5 5 5 10 40 52
0 5 5 5 2 3 1 0 0 0 0 0 0 0 0 2 0 0 30 0 6 5 0 0 4 3 47 96 99 82 72 100 100 100 91 72 13 5 5 5 7 33 41
0 0 0 5 5 5 5 0 0 0 0 0 0 0 0 0 2 0 3 1 5 0 0 0 0 5 40 100 100 100 100 100 100 100 88 27 5 34 46 40 41 5 87
5 1 2 1 0 0 3 0 0 0 0 0 0 0 0 0 0 5 2 26 2 0 0 3 0 1 37 99 100 100 100 100 100 100 96 54 76 100 100 100 100 49 8
4 5 4 2 0 0 0 0 0 0 0 0 0 0 0 0 2 18 0 5 5 0 0 2 61 99 100 67 100 100 99 100 100 100 75 83 100 100 100 100 100 100 100
2 0 2 3 5 3 0 0 5 0 0 0 0 0 0 0 2 6 5 1 5 0 0 5 79 99 100 100 94 100 100 100 91 100 100 100 100 100 100 100 77 26 100
100 54 21 1 0 7 1 0 3 1 3 0 0 0 0 0 0 0 11 82 31 5 57 100 100 100 92 100 100 100 100 100 100 100 100 100 93 76 94 70 16 5 5
100 100 100 100 59 6 0 0 0 0 0 0 0 0 0 0 0 0 4 10 5 12 53 90 100 74 100 96 86 100 100 100 100 100 100 98 62 37 16 89 48 53 7
100 100 100 100 100 100 36 4 0 0 0 0 0 0 0 0 0 0 2 5 5 5 6 33 100 100 100 100 100 100 100 100 100 100 100 100 93 96 94 22 56 50 26
100 100 100 100 100 100 100 20 5 0 4 1 0 0 0 0 0 0 0 5 5 2 1 6 40 97 100 100 100 100 100 100 100 99 100 100 95 100 100 26 100 98 100
100 100 100 100 100 100 100 100 35 8 1 54 6 0 0 0 0 0 4 4 6 6 4 5 5 7 23 64 54 50 44 91 79 87 100 100 100 100 100 100 100 100 100
100 100 100 88 100 100 100 100 95 66 5 74 7 5 0 0 1 0 4 6 5 12 6 5 4 5 30 93 80 5 41 79 100 100 100 100 100 100 100 100 100 100 96
100 84 61 94 96 100 23 35 51 55 100 43 64 64 5 5 5 11 21 97 26 43 7 5 5 5 5 99 100 98 66 46 9 18 80 93 97 64 96 100 96 100 97
37 16 14 8 5 93 33 64 97 100 89 87 100 100 100 85 40 100 100 100 100 100 100 73 40 100 78 22 87 97 52 87 100 99 100 100 100 73 100 100 100 100 99